Year,Month,Day,Hour,Minute,Value (Times are PST for temperature in C)
2016,01,18,00,00,7.30
2016,01,18,00,01,7.30
2016,01,18,00,02,7.30
2016,01,18,00,03,7.30
2016,01,18,00,04,7.40
2016,01,18,00,05,7.30
2016,01,18,00,06,7.30
2016,01,18,00,07,7.30
2016,01,18,00,08,7.30
2016,01,18,00,09,7.30
2016,01,18,00,10,7.30
2016,01,18,00,11,7.30
2016,01,18,00,12,7.30
2016,01,18,00,13,7.30
2016,01,18,00,14,7.30
2016,01,18,00,15,7.30
2016,01,18,00,16,7.40
2016,01,18,00,17,7.40
2016,01,18,00,18,7.40
2016,01,18,00,19,7.40
2016,01,18,00,20,7.50
2016,01,18,00,21,7.50
2016,01,18,00,22,7.50
2016,01,18,00,23,7.50
2016,01,18,00,24,7.50
2016,01,18,00,25,7.50
2016,01,18,00,26,7.50
2016,01,18,00,27,7.50
2016,01,18,00,28,7.50
2016,01,18,00,29,7.50
2016,01,18,00,30,7.50
2016,01,18,00,31,7.50
2016,01,18,00,32,7.50
2016,01,18,00,33,7.50
2016,01,18,00,34,7.50
2016,01,18,00,35,7.50
2016,01,18,00,36,7.60
2016,01,18,00,37,7.60
2016,01,18,00,38,7.70
2016,01,18,00,39,7.80
2016,01,18,00,40,7.90
2016,01,18,00,41,7.90
2016,01,18,00,42,8.00
2016,01,18,00,43,8.10
2016,01,18,00,44,8.10
2016,01,18,00,45,8.10
2016,01,18,00,46,8.10
2016,01,18,00,47,8.20
2016,01,18,00,48,8.20
2016,01,18,00,49,8.20
2016,01,18,00,50,8.20
2016,01,18,00,51,8.20
2016,01,18,00,52,8.20
2016,01,18,00,53,8.20
2016,01,18,00,54,8.20
2016,01,18,00,55,8.20
2016,01,18,00,56,8.20
2016,01,18,00,57,8.20
2016,01,18,00,58,8.20
2016,01,18,00,59,8.20
2016,01,18,01,00,8.20
2016,01,18,01,01,8.20
2016,01,18,01,02,8.20
2016,01,18,01,03,8.10
2016,01,18,01,04,8.10
2016,01,18,01,05,8.10
2016,01,18,01,06,8.10
2016,01,18,01,07,8.20
2016,01,18,01,08,8.20
2016,01,18,01,09,8.20
2016,01,18,01,10,8.20
2016,01,18,01,11,8.20
2016,01,18,01,12,8.20
2016,01,18,01,13,8.20
2016,01,18,01,14,8.20
2016,01,18,01,15,8.20
2016,01,18,01,16,8.20
2016,01,18,01,17,8.20
2016,01,18,01,18,8.30
2016,01,18,01,19,8.30
2016,01,18,01,20,8.30
2016,01,18,01,21,8.40
2016,01,18,01,22,8.40
2016,01,18,01,23,8.40
2016,01,18,01,24,8.50
2016,01,18,01,25,8.50
2016,01,18,01,26,8.50
2016,01,18,01,27,8.50
2016,01,18,01,28,8.60
2016,01,18,01,29,8.60
2016,01,18,01,30,8.60
2016,01,18,01,31,8.60
2016,01,18,01,32,8.60
2016,01,18,01,33,8.70
2016,01,18,01,34,8.70
2016,01,18,01,35,8.70
2016,01,18,01,36,8.70
2016,01,18,01,37,8.70
2016,01,18,01,38,8.70
2016,01,18,01,39,8.70
2016,01,18,01,40,8.70
2016,01,18,01,41,8.70
2016,01,18,01,42,8.70
2016,01,18,01,43,8.70
2016,01,18,01,44,8.70
2016,01,18,01,45,8.70
2016,01,18,01,46,8.70
2016,01,18,01,47,8.70
2016,01,18,01,48,8.70
2016,01,18,01,49,8.70
2016,01,18,01,50,8.70
2016,01,18,01,51,8.60
2016,01,18,01,52,8.60
2016,01,18,01,53,8.60
2016,01,18,01,54,8.60
2016,01,18,01,55,8.60
2016,01,18,01,56,8.60
2016,01,18,01,57,8.60
2016,01,18,01,58,8.60
2016,01,18,01,59,8.60
2016,01,18,02,00,8.60
2016,01,18,02,01,8.60
2016,01,18,02,02,8.60
2016,01,18,02,03,8.60
2016,01,18,02,04,8.60
2016,01,18,02,05,8.60
2016,01,18,02,06,8.60
2016,01,18,02,07,8.60
2016,01,18,02,08,8.60
2016,01,18,02,09,8.60
2016,01,18,02,10,8.60
2016,01,18,02,11,8.60
2016,01,18,02,12,8.50
2016,01,18,02,13,8.50
2016,01,18,02,14,8.50
2016,01,18,02,15,8.50
2016,01,18,02,16,8.50
2016,01,18,02,17,8.40
2016,01,18,02,18,8.40
2016,01,18,02,19,8.40
2016,01,18,02,20,8.50
2016,01,18,02,21,8.50
2016,01,18,02,22,8.50
2016,01,18,02,23,8.50
2016,01,18,02,24,8.50
2016,01,18,02,25,8.40
2016,01,18,02,26,8.50
2016,01,18,02,27,8.50
2016,01,18,02,28,8.50
2016,01,18,02,29,8.50
2016,01,18,02,30,8.50
2016,01,18,02,31,8.50
2016,01,18,02,32,8.50
2016,01,18,02,33,8.50
2016,01,18,02,34,8.50
2016,01,18,02,35,8.50
2016,01,18,02,36,8.60
2016,01,18,02,37,8.60
2016,01,18,02,38,8.60
2016,01,18,02,39,8.60
2016,01,18,02,40,8.60
2016,01,18,02,41,8.60
2016,01,18,02,42,8.60
2016,01,18,02,43,8.60
2016,01,18,02,44,8.60
2016,01,18,02,45,8.60
2016,01,18,02,46,8.60
2016,01,18,02,47,8.60
2016,01,18,02,48,8.60
2016,01,18,02,49,8.60
2016,01,18,02,50,8.60
2016,01,18,02,51,8.60
2016,01,18,02,52,8.60
2016,01,18,02,53,8.60
2016,01,18,02,54,8.60
2016,01,18,02,55,8.60
2016,01,18,02,56,8.60
2016,01,18,02,57,8.60
2016,01,18,02,58,8.60
2016,01,18,02,59,8.60
2016,01,18,03,00,8.60
2016,01,18,03,01,8.60
2016,01,18,03,02,8.60
2016,01,18,03,03,8.60
2016,01,18,03,04,8.60
2016,01,18,03,05,8.50
2016,01,18,03,06,8.50
2016,01,18,03,07,8.40
2016,01,18,03,08,8.40
2016,01,18,03,09,8.40
2016,01,18,03,10,8.30
2016,01,18,03,11,8.30
2016,01,18,03,12,8.20
2016,01,18,03,13,8.20
2016,01,18,03,14,8.20
2016,01,18,03,15,8.20
2016,01,18,03,16,8.20
2016,01,18,03,17,8.20
2016,01,18,03,18,8.20
2016,01,18,03,19,8.20
2016,01,18,03,20,8.20
2016,01,18,03,21,8.20
2016,01,18,03,22,8.20
2016,01,18,03,23,8.20
2016,01,18,03,24,8.20
2016,01,18,03,25,8.20
2016,01,18,03,26,8.20
2016,01,18,03,27,8.20
2016,01,18,03,28,8.20
2016,01,18,03,29,8.20
2016,01,18,03,30,8.20
2016,01,18,03,31,8.30
2016,01,18,03,32,8.30
2016,01,18,03,33,8.40
2016,01,18,03,34,8.40
2016,01,18,03,35,8.40
2016,01,18,03,36,8.40
2016,01,18,03,37,8.40
2016,01,18,03,38,8.40
2016,01,18,03,39,8.40
2016,01,18,03,40,8.30
2016,01,18,03,41,8.30
2016,01,18,03,42,8.20
2016,01,18,03,43,8.20
2016,01,18,03,44,8.20
2016,01,18,03,45,8.20
2016,01,18,03,46,8.20
2016,01,18,03,47,8.10
2016,01,18,03,48,8.10
2016,01,18,03,49,8.10
2016,01,18,03,50,8.00
2016,01,18,03,51,8.00
2016,01,18,03,52,8.00
2016,01,18,03,53,8.00
2016,01,18,03,54,8.00
2016,01,18,03,55,8.00
2016,01,18,03,56,8.00
2016,01,18,03,57,8.00
2016,01,18,03,58,8.10
2016,01,18,03,59,8.10
2016,01,18,04,00,8.10
2016,01,18,04,01,8.10
2016,01,18,04,02,8.10
2016,01,18,04,03,8.10
2016,01,18,04,04,8.10
2016,01,18,04,05,8.10
2016,01,18,04,06,8.00
2016,01,18,04,07,8.00
2016,01,18,04,08,8.00
2016,01,18,04,09,8.00
2016,01,18,04,10,8.00
2016,01,18,04,11,8.00
2016,01,18,04,12,8.00
2016,01,18,04,13,8.00
2016,01,18,04,14,7.90
2016,01,18,04,15,7.90
2016,01,18,04,16,7.90
2016,01,18,04,17,7.90
2016,01,18,04,18,7.90
2016,01,18,04,19,7.90
2016,01,18,04,20,7.90
2016,01,18,04,21,7.90
2016,01,18,04,22,8.00
2016,01,18,04,23,8.00
2016,01,18,04,24,8.00
2016,01,18,04,25,8.00
2016,01,18,04,26,8.00
2016,01,18,04,27,7.90
2016,01,18,04,28,7.90
2016,01,18,04,29,7.90
2016,01,18,04,30,7.90
2016,01,18,04,31,7.90
2016,01,18,04,32,7.90
2016,01,18,04,33,7.90
2016,01,18,04,34,7.90
2016,01,18,04,35,7.90
2016,01,18,04,36,7.90
2016,01,18,04,37,7.90
2016,01,18,04,38,7.90
2016,01,18,04,39,8.00
2016,01,18,04,40,8.00
2016,01,18,04,41,8.00
2016,01,18,04,42,8.10
2016,01,18,04,43,8.10
2016,01,18,04,44,8.10
2016,01,18,04,45,8.00
2016,01,18,04,46,8.00
2016,01,18,04,47,7.90
2016,01,18,04,48,7.90
2016,01,18,04,49,7.80
2016,01,18,04,50,7.80
2016,01,18,04,51,7.80
2016,01,18,04,52,7.90
2016,01,18,04,53,7.90
2016,01,18,04,54,7.90
2016,01,18,04,55,7.90
2016,01,18,04,56,7.80
2016,01,18,04,57,7.80
2016,01,18,04,58,7.70
2016,01,18,04,59,7.70
2016,01,18,05,00,7.60
2016,01,18,05,01,7.60
2016,01,18,05,02,7.50
2016,01,18,05,03,7.50
2016,01,18,05,04,7.50
2016,01,18,05,05,7.50
2016,01,18,05,06,7.50
2016,01,18,05,07,7.50
2016,01,18,05,08,7.50
2016,01,18,05,09,7.50
2016,01,18,05,10,7.50
2016,01,18,05,11,7.50
2016,01,18,05,12,7.50
2016,01,18,05,13,7.50
2016,01,18,05,14,7.50
2016,01,18,05,15,7.50
2016,01,18,05,16,7.40
2016,01,18,05,17,7.40
2016,01,18,05,18,7.40
2016,01,18,05,19,7.40
2016,01,18,05,20,7.40
2016,01,18,05,21,7.40
2016,01,18,05,22,7.40
2016,01,18,05,23,7.40
2016,01,18,05,24,7.40
2016,01,18,05,25,7.50
2016,01,18,05,26,7.50
2016,01,18,05,27,7.50
2016,01,18,05,28,7.50
2016,01,18,05,29,7.50
2016,01,18,05,30,7.50
2016,01,18,05,31,7.50
2016,01,18,05,32,7.50
2016,01,18,05,33,7.50
2016,01,18,05,34,7.60
2016,01,18,05,35,7.60
2016,01,18,05,36,7.60
2016,01,18,05,37,7.60
2016,01,18,05,38,7.60
2016,01,18,05,39,7.60
2016,01,18,05,40,7.60
2016,01,18,05,41,7.60
2016,01,18,05,42,7.60
2016,01,18,05,43,7.60
2016,01,18,05,44,7.60
2016,01,18,05,45,7.60
2016,01,18,05,46,7.60
2016,01,18,05,47,7.60
2016,01,18,05,48,7.60
2016,01,18,05,49,7.60
2016,01,18,05,50,7.60
2016,01,18,05,51,7.60
2016,01,18,05,52,7.60
2016,01,18,05,53,7.60
2016,01,18,05,54,7.50
2016,01,18,05,55,7.50
2016,01,18,05,56,7.50
2016,01,18,05,57,7.50
2016,01,18,05,58,7.50
2016,01,18,05,59,7.50
2016,01,18,06,00,7.50
2016,01,18,06,01,7.50
2016,01,18,06,02,7.40
2016,01,18,06,03,7.40
2016,01,18,06,04,7.40
2016,01,18,06,05,7.40
2016,01,18,06,06,7.30
2016,01,18,06,07,7.30
2016,01,18,06,08,7.30
2016,01,18,06,09,7.30
2016,01,18,06,10,7.30
2016,01,18,06,11,7.30
2016,01,18,06,12,7.30
2016,01,18,06,13,7.30
2016,01,18,06,14,7.30
2016,01,18,06,15,7.30
2016,01,18,06,16,7.30
2016,01,18,06,17,7.30
2016,01,18,06,18,7.40
2016,01,18,06,19,7.40
2016,01,18,06,20,7.40
2016,01,18,06,21,7.40
2016,01,18,06,22,7.50
2016,01,18,06,23,7.50
2016,01,18,06,24,7.50
2016,01,18,06,25,7.50
2016,01,18,06,26,7.50
2016,01,18,06,27,7.50
2016,01,18,06,28,7.50
2016,01,18,06,29,7.50
2016,01,18,06,30,7.40
2016,01,18,06,31,7.40
2016,01,18,06,32,7.40
2016,01,18,06,33,7.40
2016,01,18,06,34,7.40
2016,01,18,06,35,7.30
2016,01,18,06,36,7.30
2016,01,18,06,37,7.30
2016,01,18,06,38,7.40
2016,01,18,06,39,7.40
2016,01,18,06,40,7.40
2016,01,18,06,41,7.40
2016,01,18,06,42,7.30
2016,01,18,06,43,7.30
2016,01,18,06,44,7.30
2016,01,18,06,45,7.30
2016,01,18,06,46,7.30
2016,01,18,06,47,7.30
2016,01,18,06,48,7.30
2016,01,18,06,49,7.30
2016,01,18,06,50,7.30
2016,01,18,06,51,7.30
2016,01,18,06,52,7.30
2016,01,18,06,53,7.30
2016,01,18,06,54,7.30
2016,01,18,06,55,7.30
2016,01,18,06,56,7.30
2016,01,18,06,57,7.30
2016,01,18,06,58,7.20
2016,01,18,06,59,7.20
2016,01,18,07,00,7.20
2016,01,18,07,01,7.20
2016,01,18,07,02,7.20
2016,01,18,07,03,7.20
2016,01,18,07,04,7.20
2016,01,18,07,05,7.20
2016,01,18,07,06,7.10
2016,01,18,07,07,7.10
2016,01,18,07,08,7.10
2016,01,18,07,09,7.10
2016,01,18,07,10,7.10
2016,01,18,07,11,7.10
2016,01,18,07,12,7.10
2016,01,18,07,13,7.10
2016,01,18,07,14,7.10
2016,01,18,07,15,7.10
2016,01,18,07,16,7.10
2016,01,18,07,17,7.10
2016,01,18,07,18,7.10
2016,01,18,07,19,7.10
2016,01,18,07,20,7.10
2016,01,18,07,21,7.10
2016,01,18,07,22,7.10
2016,01,18,07,23,7.10
2016,01,18,07,24,7.00
2016,01,18,07,25,7.00
2016,01,18,07,26,7.00
2016,01,18,07,27,7.00
2016,01,18,07,28,6.90
2016,01,18,07,29,6.90
2016,01,18,07,30,6.90
2016,01,18,07,31,6.90
2016,01,18,07,32,6.80
2016,01,18,07,33,6.80
2016,01,18,07,34,6.80
2016,01,18,07,35,6.80
2016,01,18,07,36,6.80
2016,01,18,07,37,6.80
2016,01,18,07,38,6.80
2016,01,18,07,39,6.80
2016,01,18,07,40,6.80
2016,01,18,07,41,6.80
2016,01,18,07,42,6.80
2016,01,18,07,43,6.80
2016,01,18,07,44,6.80
2016,01,18,07,45,6.80
2016,01,18,07,46,6.80
2016,01,18,07,47,6.80
2016,01,18,07,48,6.70
2016,01,18,07,49,6.70
2016,01,18,07,50,6.70
2016,01,18,07,51,6.70
2016,01,18,07,52,6.70
2016,01,18,07,53,6.70
2016,01,18,07,54,6.70
2016,01,18,07,55,6.70
2016,01,18,07,56,6.70
2016,01,18,07,57,6.70
2016,01,18,07,58,6.70
2016,01,18,07,59,6.80
2016,01,18,08,00,6.80
2016,01,18,08,01,6.80
2016,01,18,08,02,6.80
2016,01,18,08,03,6.80
2016,01,18,08,04,6.80
2016,01,18,08,05,6.70
2016,01,18,08,06,6.60
2016,01,18,08,07,6.60
2016,01,18,08,08,6.60
2016,01,18,08,09,6.50
2016,01,18,08,10,6.40
2016,01,18,08,11,6.40
2016,01,18,08,12,6.40
2016,01,18,08,13,6.40
2016,01,18,08,14,6.40
2016,01,18,08,15,6.40
2016,01,18,08,16,6.40
2016,01,18,08,17,6.40
2016,01,18,08,18,6.40
2016,01,18,08,19,6.40
2016,01,18,08,20,6.40
2016,01,18,08,21,6.30
2016,01,18,08,22,6.30
2016,01,18,08,23,6.30
2016,01,18,08,24,6.30
2016,01,18,08,25,6.30
2016,01,18,08,26,6.30
2016,01,18,08,27,6.30
2016,01,18,08,28,6.30
2016,01,18,08,29,6.30
2016,01,18,08,30,6.30
2016,01,18,08,31,6.30
2016,01,18,08,32,6.20
2016,01,18,08,33,6.20
2016,01,18,08,34,6.20
2016,01,18,08,35,6.20
2016,01,18,08,36,6.20
2016,01,18,08,37,6.20
2016,01,18,08,38,6.20
2016,01,18,08,39,6.20
2016,01,18,08,40,6.20
2016,01,18,08,41,6.20
2016,01,18,08,42,6.20
2016,01,18,08,43,6.20
2016,01,18,08,44,6.20
2016,01,18,08,45,6.20
2016,01,18,08,46,6.30
2016,01,18,08,47,6.30
2016,01,18,08,48,6.40
2016,01,18,08,49,6.40
2016,01,18,08,50,6.40
2016,01,18,08,51,6.40
2016,01,18,08,52,6.40
2016,01,18,08,53,6.50
2016,01,18,08,54,6.60
2016,01,18,08,55,6.60
2016,01,18,08,56,6.60
2016,01,18,08,57,6.60
2016,01,18,08,58,6.60
2016,01,18,08,59,6.70
2016,01,18,09,00,6.70
2016,01,18,09,01,6.70
2016,01,18,09,02,6.80
2016,01,18,09,03,6.80
2016,01,18,09,04,6.80
2016,01,18,09,05,6.80
2016,01,18,09,06,6.80
2016,01,18,09,07,6.80
2016,01,18,09,08,6.90
2016,01,18,09,09,6.90
2016,01,18,09,10,7.00
2016,01,18,09,11,7.00
2016,01,18,09,12,7.00
2016,01,18,09,13,7.00
2016,01,18,09,14,7.10
2016,01,18,09,15,7.10
2016,01,18,09,16,7.10
2016,01,18,09,17,7.20
2016,01,18,09,18,7.20
2016,01,18,09,19,7.20
2016,01,18,09,20,7.20
2016,01,18,09,21,7.20
2016,01,18,09,22,7.30
2016,01,18,09,23,7.30
2016,01,18,09,24,7.30
2016,01,18,09,25,7.30
2016,01,18,09,26,7.30
2016,01,18,09,27,7.30
2016,01,18,09,28,7.30
2016,01,18,09,29,7.30
2016,01,18,09,30,7.30
2016,01,18,09,31,7.30
2016,01,18,09,32,7.30
2016,01,18,09,33,7.30
2016,01,18,09,34,7.30
2016,01,18,09,35,7.20
2016,01,18,09,36,7.20
2016,01,18,09,37,7.20
2016,01,18,09,38,7.20
2016,01,18,09,39,7.20
2016,01,18,09,40,7.20
2016,01,18,09,41,7.20
2016,01,18,09,42,7.20
2016,01,18,09,43,7.30
2016,01,18,09,44,7.30
2016,01,18,09,45,7.30
2016,01,18,09,46,7.30
2016,01,18,09,47,7.30
2016,01,18,09,48,7.40
2016,01,18,09,49,7.40
2016,01,18,09,50,7.50
2016,01,18,09,51,7.50
2016,01,18,09,52,7.50
2016,01,18,09,53,7.50
2016,01,18,09,54,7.50
2016,01,18,09,55,7.50
2016,01,18,09,56,7.50
2016,01,18,09,57,7.50
2016,01,18,09,58,7.60
2016,01,18,09,59,7.60
2016,01,18,10,00,7.70
2016,01,18,10,01,7.80
2016,01,18,10,02,7.80
2016,01,18,10,03,7.80
2016,01,18,10,04,7.80
2016,01,18,10,05,7.90
2016,01,18,10,06,8.00
2016,01,18,10,07,8.00
2016,01,18,10,08,8.00
2016,01,18,10,09,8.10
2016,01,18,10,10,8.10
2016,01,18,10,11,8.10
2016,01,18,10,12,8.20
2016,01,18,10,13,8.20
2016,01,18,10,14,8.20
2016,01,18,10,15,8.20
2016,01,18,10,16,8.20
2016,01,18,10,17,8.30
2016,01,18,10,18,8.30
2016,01,18,10,19,8.40
2016,01,18,10,20,8.40
2016,01,18,10,21,8.40
2016,01,18,10,22,8.40
2016,01,18,10,23,8.50
2016,01,18,10,24,8.50
2016,01,18,10,25,8.50
2016,01,18,10,26,8.50
2016,01,18,10,27,8.50
2016,01,18,10,28,8.50
2016,01,18,10,29,8.50
2016,01,18,10,30,8.50
2016,01,18,10,31,8.50
2016,01,18,10,32,8.50
2016,01,18,10,33,8.50
2016,01,18,10,34,8.50
2016,01,18,10,35,8.50
2016,01,18,10,36,8.50
2016,01,18,10,37,8.60
2016,01,18,10,38,8.60
2016,01,18,10,39,8.60
2016,01,18,10,40,8.60
2016,01,18,10,41,8.60
2016,01,18,10,42,8.60
2016,01,18,10,43,8.60
2016,01,18,10,44,8.60
2016,01,18,10,45,8.50
2016,01,18,10,46,8.50
2016,01,18,10,47,8.50
2016,01,18,10,48,8.50
2016,01,18,10,49,8.50
2016,01,18,10,50,8.50
2016,01,18,10,51,8.50
2016,01,18,10,52,8.50
2016,01,18,10,53,8.60
2016,01,18,10,54,8.50
2016,01,18,10,55,8.50
2016,01,18,10,56,8.50
2016,01,18,10,57,8.50
2016,01,18,10,58,8.50
2016,01,18,10,59,8.50
2016,01,18,11,00,8.50
2016,01,18,11,01,8.60
2016,01,18,11,02,8.60
2016,01,18,11,03,8.60
2016,01,18,11,04,8.60
2016,01,18,11,05,8.60
2016,01,18,11,06,8.70
2016,01,18,11,07,8.70
2016,01,18,11,08,8.70
2016,01,18,11,09,8.70
2016,01,18,11,10,8.70
2016,01,18,11,11,8.70
2016,01,18,11,12,8.70
2016,01,18,11,13,8.70
2016,01,18,11,14,8.70
2016,01,18,11,15,8.80
2016,01,18,11,16,8.80
2016,01,18,11,17,8.80
2016,01,18,11,18,8.80
2016,01,18,11,19,8.90
2016,01,18,11,20,8.90
2016,01,18,11,21,8.90
2016,01,18,11,22,8.90
2016,01,18,11,23,9.00
2016,01,18,11,24,9.00
2016,01,18,11,25,9.00
2016,01,18,11,26,9.00
2016,01,18,11,27,9.00
2016,01,18,11,28,9.00
2016,01,18,11,29,9.00
2016,01,18,11,30,9.00
2016,01,18,11,31,9.10
2016,01,18,11,32,9.10
2016,01,18,11,33,9.10
2016,01,18,11,34,9.20
2016,01,18,11,35,9.20
2016,01,18,11,36,9.20
2016,01,18,11,37,9.20
2016,01,18,11,38,9.20
2016,01,18,11,39,9.20
2016,01,18,11,40,9.20
2016,01,18,11,41,9.20
2016,01,18,11,42,9.20
2016,01,18,11,43,9.20
2016,01,18,11,44,9.20
2016,01,18,11,45,9.20
2016,01,18,11,46,9.20
2016,01,18,11,47,9.20
2016,01,18,11,48,9.20
2016,01,18,11,49,9.20
2016,01,18,11,50,9.20
2016,01,18,11,51,9.20
2016,01,18,11,52,9.20
2016,01,18,11,53,9.20
2016,01,18,11,54,9.20
2016,01,18,11,55,9.20
2016,01,18,11,56,9.20
2016,01,18,11,57,9.30
2016,01,18,11,58,9.30
2016,01,18,11,59,9.30
2016,01,18,12,00,9.30
2016,01,18,12,01,9.40
2016,01,18,12,02,9.40
2016,01,18,12,03,9.40
2016,01,18,12,04,9.50
2016,01,18,12,05,9.50
2016,01,18,12,06,9.60
2016,01,18,12,07,9.60
2016,01,18,12,08,9.60
2016,01,18,12,09,9.70
2016,01,18,12,10,9.70
2016,01,18,12,11,9.70
2016,01,18,12,12,9.70
2016,01,18,12,13,9.70
2016,01,18,12,14,9.80
2016,01,18,12,15,9.80
2016,01,18,12,16,9.90
2016,01,18,12,17,9.90
2016,01,18,12,18,9.90
2016,01,18,12,19,9.90
2016,01,18,12,20,9.80
2016,01,18,12,21,9.80
2016,01,18,12,22,9.80
2016,01,18,12,23,9.70
2016,01,18,12,24,9.70
2016,01,18,12,25,9.70
2016,01,18,12,26,9.70
2016,01,18,12,27,9.70
2016,01,18,12,28,9.70
2016,01,18,12,29,9.70
2016,01,18,12,30,9.70
2016,01,18,12,31,9.70
2016,01,18,12,32,9.80
2016,01,18,12,33,9.70
2016,01,18,12,34,9.80
2016,01,18,12,35,9.80
2016,01,18,12,36,9.80
2016,01,18,12,37,9.80
2016,01,18,12,38,9.80
2016,01,18,12,39,9.90
2016,01,18,12,40,9.90
2016,01,18,12,41,9.90
2016,01,18,12,42,9.90
2016,01,18,12,43,9.90
2016,01,18,12,44,9.90
2016,01,18,12,45,9.90
2016,01,18,12,46,9.90
2016,01,18,12,47,9.90
2016,01,18,12,48,9.90
2016,01,18,12,49,9.90
2016,01,18,12,50,9.90
2016,01,18,12,51,9.90
2016,01,18,12,52,9.90
2016,01,18,12,53,9.90
2016,01,18,12,54,9.90
2016,01,18,12,55,9.90
2016,01,18,12,56,9.90
2016,01,18,12,57,9.80
2016,01,18,12,58,9.90
2016,01,18,12,59,9.90
2016,01,18,13,00,9.90
2016,01,18,13,01,9.90
2016,01,18,13,02,9.90
2016,01,18,13,03,9.90
2016,01,18,13,04,9.90
2016,01,18,13,05,9.90
2016,01,18,13,06,9.90
2016,01,18,13,07,9.90
2016,01,18,13,08,9.90
2016,01,18,13,09,9.90
2016,01,18,13,10,9.90
2016,01,18,13,11,9.80
2016,01,18,13,12,9.80
2016,01,18,13,13,9.80
2016,01,18,13,14,9.70
2016,01,18,13,15,9.70
2016,01,18,13,16,9.70
2016,01,18,13,17,9.70
2016,01,18,13,18,9.70
2016,01,18,13,19,9.70
2016,01,18,13,20,9.70
2016,01,18,13,21,9.70
2016,01,18,13,22,9.70
2016,01,18,13,23,9.70
2016,01,18,13,24,9.70
2016,01,18,13,25,9.70
2016,01,18,13,26,9.70
2016,01,18,13,27,9.70
2016,01,18,13,28,9.70
2016,01,18,13,29,9.80
2016,01,18,13,30,9.80
2016,01,18,13,31,9.90
2016,01,18,13,32,9.90
2016,01,18,13,33,9.90
2016,01,18,13,34,9.90
2016,01,18,13,35,9.90
2016,01,18,13,36,9.90
2016,01,18,13,37,9.90
2016,01,18,13,38,9.90
2016,01,18,13,39,9.90
2016,01,18,13,40,9.90
2016,01,18,13,41,9.90
2016,01,18,13,42,10.00
2016,01,18,13,43,10.10
2016,01,18,13,44,10.10
2016,01,18,13,45,10.10
2016,01,18,13,46,10.10
2016,01,18,13,47,10.10
2016,01,18,13,48,10.10
2016,01,18,13,49,10.10
2016,01,18,13,50,10.10
2016,01,18,13,51,10.20
2016,01,18,13,52,10.20
2016,01,18,13,53,10.20
2016,01,18,13,54,10.20
2016,01,18,13,55,10.20
2016,01,18,13,56,10.20
2016,01,18,13,57,10.10
2016,01,18,13,58,10.10
2016,01,18,13,59,10.10
2016,01,18,14,00,10.10
2016,01,18,14,01,10.10
2016,01,18,14,02,10.10
2016,01,18,14,03,10.10
2016,01,18,14,04,10.10
2016,01,18,14,05,10.10
2016,01,18,14,06,10.00
2016,01,18,14,07,9.90
2016,01,18,14,08,9.90
2016,01,18,14,09,9.90
2016,01,18,14,10,9.90
2016,01,18,14,11,9.90
2016,01,18,14,12,9.90
2016,01,18,14,13,9.80
2016,01,18,14,14,9.80
2016,01,18,14,15,9.80
2016,01,18,14,16,9.70
2016,01,18,14,17,9.70
2016,01,18,14,18,9.70
2016,01,18,14,19,9.70
2016,01,18,14,20,9.70
2016,01,18,14,21,9.70
2016,01,18,14,22,9.60
2016,01,18,14,23,9.60
2016,01,18,14,24,9.60
2016,01,18,14,25,9.60
2016,01,18,14,26,9.60
2016,01,18,14,27,9.50
2016,01,18,14,28,9.50
2016,01,18,14,29,9.50
2016,01,18,14,30,9.50
2016,01,18,14,31,9.50
2016,01,18,14,32,9.50
2016,01,18,14,33,9.50
2016,01,18,14,34,9.50
2016,01,18,14,35,9.50
2016,01,18,14,36,9.50
2016,01,18,14,37,9.50
2016,01,18,14,38,9.50
2016,01,18,14,39,9.50
2016,01,18,14,40,9.50
2016,01,18,14,41,9.50
2016,01,18,14,42,9.50
2016,01,18,14,43,9.50
2016,01,18,14,44,9.50
2016,01,18,14,45,9.50
2016,01,18,14,46,9.50
2016,01,18,14,47,9.40
2016,01,18,14,48,9.40
2016,01,18,14,49,9.40
2016,01,18,14,50,9.40
2016,01,18,14,51,9.40
2016,01,18,14,52,9.40
2016,01,18,14,53,9.40
2016,01,18,14,54,9.40
2016,01,18,14,55,9.40
2016,01,18,14,56,9.40
2016,01,18,14,57,9.40
2016,01,18,14,58,9.40
2016,01,18,14,59,9.40
2016,01,18,15,00,9.50
2016,01,18,15,01,9.50
2016,01,18,15,02,9.50
2016,01,18,15,03,9.40
2016,01,18,15,04,9.40
2016,01,18,15,05,9.40
2016,01,18,15,06,9.40
2016,01,18,15,07,9.40
2016,01,18,15,08,9.40
2016,01,18,15,09,9.40
2016,01,18,15,10,9.40
2016,01,18,15,11,9.40
2016,01,18,15,12,9.40
2016,01,18,15,13,9.40
2016,01,18,15,14,9.40
2016,01,18,15,15,9.40
2016,01,18,15,16,9.30
2016,01,18,15,17,9.30
2016,01,18,15,18,9.30
2016,01,18,15,19,9.30
2016,01,18,15,20,9.30
2016,01,18,15,21,9.30
2016,01,18,15,22,9.30
2016,01,18,15,23,9.30
2016,01,18,15,24,9.40
2016,01,18,15,25,9.40
2016,01,18,15,26,9.40
2016,01,18,15,27,9.40
2016,01,18,15,28,9.50
2016,01,18,15,29,9.50
2016,01,18,15,30,9.50
2016,01,18,15,31,9.60
2016,01,18,15,32,9.60
2016,01,18,15,33,9.70
2016,01,18,15,34,9.70
2016,01,18,15,35,9.70
2016,01,18,15,36,9.80
2016,01,18,15,37,9.80
2016,01,18,15,38,9.70
2016,01,18,15,39,9.70
2016,01,18,15,40,9.70
2016,01,18,15,41,9.70
2016,01,18,15,42,9.70
2016,01,18,15,43,9.70
2016,01,18,15,44,9.70
2016,01,18,15,45,9.70
2016,01,18,15,46,9.70
2016,01,18,15,47,9.70
2016,01,18,15,48,9.70
2016,01,18,15,49,9.70
2016,01,18,15,50,9.70
2016,01,18,15,51,9.70
2016,01,18,15,52,9.70
2016,01,18,15,53,9.80
2016,01,18,15,54,9.80
2016,01,18,15,55,9.80
2016,01,18,15,56,9.80
2016,01,18,15,57,9.80
2016,01,18,15,58,9.90
2016,01,18,15,59,9.90
2016,01,18,16,00,9.90
2016,01,18,16,01,9.90
2016,01,18,16,02,9.90
2016,01,18,16,03,9.90
2016,01,18,16,04,9.90
2016,01,18,16,05,9.90
2016,01,18,16,06,9.90
2016,01,18,16,07,9.90
2016,01,18,16,08,9.90
2016,01,18,16,09,9.90
2016,01,18,16,10,9.90
2016,01,18,16,11,9.80
2016,01,18,16,12,9.80
2016,01,18,16,13,9.80
2016,01,18,16,14,9.80
2016,01,18,16,15,9.80
2016,01,18,16,16,9.70
2016,01,18,16,17,9.70
2016,01,18,16,18,9.70
2016,01,18,16,19,9.70
2016,01,18,16,20,9.70
2016,01,18,16,21,9.70
2016,01,18,16,22,9.70
2016,01,18,16,23,9.70
2016,01,18,16,24,9.70
2016,01,18,16,25,9.60
2016,01,18,16,26,9.60
2016,01,18,16,27,9.60
2016,01,18,16,28,9.70
2016,01,18,16,29,9.60
2016,01,18,16,30,9.60
2016,01,18,16,31,9.60
2016,01,18,16,32,9.60
2016,01,18,16,33,9.60
2016,01,18,16,34,9.60
2016,01,18,16,35,9.60
2016,01,18,16,36,9.60
2016,01,18,16,37,9.60
2016,01,18,16,38,9.60
2016,01,18,16,39,9.60
2016,01,18,16,40,9.60
2016,01,18,16,41,9.60
2016,01,18,16,42,9.60
2016,01,18,16,43,9.60
2016,01,18,16,44,9.60
2016,01,18,16,45,9.60
2016,01,18,16,46,9.50
2016,01,18,16,47,9.50
2016,01,18,16,48,9.50
2016,01,18,16,49,9.50
2016,01,18,16,50,9.50
2016,01,18,16,51,9.60
2016,01,18,16,52,9.60
2016,01,18,16,53,9.60
2016,01,18,16,54,9.60
2016,01,18,16,55,9.70
2016,01,18,16,56,9.70
2016,01,18,16,57,9.70
2016,01,18,16,58,9.70
2016,01,18,16,59,9.70
2016,01,18,17,00,9.70
2016,01,18,17,01,9.70
2016,01,18,17,02,9.70
2016,01,18,17,03,9.70
2016,01,18,17,04,9.70
2016,01,18,17,05,9.70
2016,01,18,17,06,9.80
2016,01,18,17,07,9.80
2016,01,18,17,08,9.80
2016,01,18,17,09,9.80
2016,01,18,17,10,9.70
2016,01,18,17,11,9.70
2016,01,18,17,12,9.70
2016,01,18,17,13,9.70
2016,01,18,17,14,9.70
2016,01,18,17,15,9.70
2016,01,18,17,16,9.70
2016,01,18,17,17,9.70
2016,01,18,17,18,9.70
2016,01,18,17,19,9.70
2016,01,18,17,20,9.70
2016,01,18,17,21,9.70
2016,01,18,17,22,9.70
2016,01,18,17,23,9.70
2016,01,18,17,24,9.70
2016,01,18,17,25,9.70
2016,01,18,17,26,9.70
2016,01,18,17,27,9.70
2016,01,18,17,28,9.70
2016,01,18,17,29,9.70
2016,01,18,17,30,9.70
2016,01,18,17,31,9.70
2016,01,18,17,32,9.70
2016,01,18,17,33,9.70
2016,01,18,17,34,9.70
2016,01,18,17,35,9.60
2016,01,18,17,36,9.60
2016,01,18,17,37,9.50
2016,01,18,17,38,9.50
2016,01,18,17,39,9.50
2016,01,18,17,40,9.50
2016,01,18,17,41,9.40
2016,01,18,17,42,9.40
2016,01,18,17,43,9.40
2016,01,18,17,44,9.40
2016,01,18,17,45,9.30
2016,01,18,17,46,9.30
2016,01,18,17,47,9.30
2016,01,18,17,48,9.30
2016,01,18,17,49,9.20
2016,01,18,17,50,9.20
2016,01,18,17,51,9.20
2016,01,18,17,52,9.20
2016,01,18,17,53,9.20
2016,01,18,17,54,9.20
2016,01,18,17,55,9.20
2016,01,18,17,56,9.20
2016,01,18,17,57,9.20
2016,01,18,17,58,9.20
2016,01,18,17,59,9.20
2016,01,18,18,00,9.20
2016,01,18,18,01,9.20
2016,01,18,18,02,9.10
2016,01,18,18,03,9.10
2016,01,18,18,04,9.10
2016,01,18,18,05,9.10